Location: Bottenau
(48.5138°N, 8.0462°E)
Time: 05:25:01
(UTC+00:00)

Cosmos 2082 - Pass Details

Date: 18 April 2021
Orbit: 834 x 855 km, 71.0° (Epoch: 09 May)

Event Time Altitude Azimuth Distance (km) Brightness Sun altitude
Exits shadow 21:39:18 74° 137° (SE) 871 3.5 -25.8°
Maximum altitude 21:39:30 75° 115° (ESE) 867 3.5 -25.8°
Drops below altitude 10° 21:45:07 10° 31° (NNE) 2,458 6.5 -26.2°
Sets 21:47:34 0° 30° (NNE) 3,398 7.3 -26.4°
